Probability
22 22 23 23 21 18 16 14 11 7 4 1 0 1 2 3 3 2 1 1 1 1 0 0 0 0 0 0 0 0 0 0 0 0 0 0 0 0 0 0 0 0 0
22 21 21 21 20 17 13 11 10 8 5 2 1 0 1 3 3 1 0 0 0 0 0 1 1 1 1 1 1 0 0 0 0 0 0 0 0 0 0 0 0 0 0
21 20 20 21 20 17 12 10 10 9 7 4 2 1 1 3 3 1 0 1 1 1 1 2 2 2 2 2 2 1 1 0 0 0 0 0 0 0 0 0 0 0 0
21 22 23 24 23 19 14 12 10 8 7 5 3 2 1 2 2 1 1 2 2 2 2 3 3 3 3 3 3 3 2 1 0 0 0 0 0 0 0 0 0 0 0
25 25 24 24 22 19 15 12 9 8 6 5 3 2 1 1 1 1 2 3 3 3 3 3 3 3 3 3 2 3 3 2 1 0 0 0 0 0 0 0 0 0 0
24 24 22 20 18 16 13 11 9 7 6 4 3 3 2 2 2 1 2 3 3 3 3 3 3 3 3 1 1 1 2 2 1 1 0 0 0 0 0 0 0 0 0
19 19 17 16 16 15 13 11 9 7 6 4 3 3 3 3 3 2 2 3 3 3 3 3 3 2 2 1 1 1 1 2 2 2 1 1 0 0 0 0 0 0 0
16 15 14 15 15 14 12 10 8 7 6 5 4 3 3 3 3 2 2 3 3 3 3 2 2 1 1 2 2 2 2 2 2 2 2 1 0 0 0 0 0 0 0
16 15 13 14 14 13 11 8 7 6 5 4 3 3 2 2 2 1 2 3 3 3 2 2 1 1 1 1 3 3 3 3 2 2 1 1 0 0 0 0 0 0 0
15 14 13 13 13 12 9 7 6 5 4 3 2 1 1 1 1 0 1 4 4 3 3 2 1 1 1 1 2 2 2 2 2 2 1 1 1 0 0 0 0 0 0
12 12 12 12 11 9 8 7 6 5 4 3 2 1 1 1 1 1 2 3 4 3 3 2 1 1 0 0 1 1 1 1 1 1 1 2 2 1 0 0 0 0 0
9 11 11 10 9 8 6 6 6 5 4 3 2 2 2 2 2 2 2 2 2 2 2 1 1 0 0 0 0 0 0 0 0 0 1 1 2 2 1 0 0 0 0
9 10 10 9 8 7 6 5 4 4 3 3 3 3 3 3 1 1 1 0 1 1 1 0 0 0 0 0 0 0 0 0 0 0 0 0 1 1 1 0 0 0 0
9 9 9 9 8 7 6 4 3 3 3 3 3 3 3 3 1 0 0 0 0 0 0 0 0 0 0 0 0 0 0 0 0 0 0 0 0 0 0 0 0 0 0
6 6 7 7 7 6 5 4 3 3 3 3 3 3 3 3 2 0 0 0 0 0 0 0 0 0 0 0 0 0 0 0 0 0 0 0 0 0 0 0 0 0 0
4 4 4 5 6 6 5 4 3 3 3 3 3 3 3 2 1 0 0 0 0 0 0 0 0 0 0 0 0 0 0 0 0 0 0 0 0 0 0 0 0 0 0
3 3 3 4 5 5 5 4 3 3 3 3 2 2 2 1 0 0 0 0 0 0 0 0 0 0 0 0 0 0 0 0 0 0 0 0 0 0 0 0 0 0 0
3 3 3 3 4 3 3 3 3 3 3 3 1 0 0 0 0 0 0 0 0 0 0 0 0 0 0 0 0 0 0 0 0 0 0 0 0 0 0 0 0 0 0
3 3 3 3 2 1 1 1 2 3 3 3 1 0 0 0 0 0 0 0 0 0 0 0 0 0 0 0 0 0 0 0 0 0 0 0 0 0 0 0 0 0 0
3 3 3 2 1 0 0 0 1 2 3 3 2 1 0 0 0 0 0 0 0 0 0 0 0 0 0 0 0 0 0 0 0 0 0 0 0 0 0 0 0 0 0
3 3 1 1 0 0 0 0 0 1 1 2 2 1 0 0 0 0 0 0 0 0 0 0 0 0 0 0 0 0 0 0 0 0 0 0 0 0 0 0 0 0 0
3 2 1 0 0 0 0 0 0 0 0 1 1 0 0 0 0 0 0 0 0 0 0 0 0 0 0 0 0 0 0 0 0 0 0 0 0 0 0 0 0 0 0
2 1 0 0 0 0 0 0 0 0 0 0 0 0 0 0 0 0 0 0 0 0 0 0 0 0 0 0 0 0 0 0 0 0 0 0 0 0 0 0 0 0 0
1 0 0 0 0 0 0 0 0 0 0 0 0 0 0 0 0 0 0 0 0 0 0 0 0 0 0 0 0 0 0 0 0 0 0 0 0 0 0 0 0 0 0
0 0 0 0 0 0 0 0 0 0 0 0 0 0 0 0 0 0 0 0 0 0 0 0 0 0 0 0 0 0 0 0 0 0 0 0 0 0 0 0 0 0 0
0 0 0 0 0 0 0 0 0 0 0 0 0 0 0 0 0 0 0 0 0 0 0 0 0 0 0 0 0 0 0 0 0 0 0 0 0 0 0 0 0 0 0
Wind_Speed
6 5 4 4 3 3 3 3 3 2 2 2 2 2 2 1 1 2 2 2 2 1 1 1 1 1 0 0 1 1 1 2 2 0 1 2 3 3 4 4 4 4 5
5 4 4 3 3 3 2 2 2 2 2 2 2 2 1 1 1 2 2 2 2 1 0 0 1 0 1 0 1 1 1 1 2 1 1 2 2 3 3 4 4 5 5
4 4 3 3 3 3 2 2 2 2 2 2 2 2 1 1 2 2 2 2 2 1 1 1 0 1 1 1 2 2 1 2 2 2 1 1 1 2 3 4 5 4 4
4 4 3 3 3 3 3 3 3 2 2 2 2 1 1 1 1 2 3 3 3 2 2 1 1 2 1 1 2 2 2 3 3 3 2 1 1 2 2 2 3 3 4
5 4 3 3 3 3 3 3 3 3 3 2 3 2 2 1 1 3 3 4 4 3 3 3 3 4 5 4 3 3 3 3 3 3 2 2 2 2 2 1 2 3 3
5 4 3 3 4 4 3 3 4 4 3 4 3 3 3 2 4 5 5 4 4 3 3 3 4 4 6 7 8 7 6 4 3 3 2 2 2 1 1 2 2 2 2
5 4 4 4 5 4 4 4 4 4 4 4 4 4 4 3 5 6 7 5 4 4 3 3 4 5 6 6 9 10 9 9 6 3 3 2 1 1 2 2 1 1 1
5 4 5 5 5 5 5 5 4 4 4 4 4 4 4 4 7 7 8 6 5 5 5 4 5 5 6 6 7 8 8 8 7 5 4 3 3 2 1 2 1 2 2
5 5 4 5 6 6 5 5 4 4 5 4 5 5 5 5 6 7 7 5 6 7 6 6 6 6 8 9 8 8 8 7 9 11 10 8 8 8 5 3 3 2 2
5 5 5 5 6 6 5 5 4 5 5 5 5 5 5 5 6 7 7 5 6 6 6 7 9 9 9 9 7 7 7 5 5 6 8 8 7 8 8 4 2 2 2
6 6 6 6 6 6 5 5 5 5 6 6 6 5 5 5 6 7 6 4 5 6 5 5 5 10 11 10 8 6 6 5 5 6 6 6 6 5 6 5 4 2 2
7 7 7 6 6 5 6 6 5 6 6 5 5 5 4 5 6 7 8 7 6 6 5 4 5 10 11 11 8 8 8 7 5 5 5 5 4 4 4 4 5 4 3
8 7 7 7 6 5 5 6 5 5 4 4 4 4 3 4 5 9 9 9 9 7 5 8 9 10 10 8 10 9 7 5 5 5 4 3 2 3 3 3 4 4 5
9 7 7 7 6 5 4 4 4 4 4 3 3 3 3 3 3 3 4 6 8 8 6 8 10 11 8 7 7 6 5 4 4 4 3 3 3 3 4 3 3 3 4
8 7 7 6 6 6 5 4 3 2 2 3 3 3 3 3 1 3 4 4 4 5 6 5 5 4 5 4 4 4 4 4 4 3 3 3 3 3 3 3 2 3 3
7 6 5 5 5 5 5 6 10 7 6 5 5 4 3 4 6 7 8 8 8 8 6 5 4 3 3 3 3 3 3 3 3 3 3 2 2 2 2 2 2 2 2
7 6 5 5 5 5 4 5 5 6 9 8 7 6 6 7 8 9 9 9 8 7 5 4 3 3 2 2 2 2 2 2 2 2 2 2 2 2 2 2 2 2 2
7 7 6 5 5 5 4 4 4 4 4 3 5 5 6 7 8 9 10 8 5 4 3 3 2 2 1 1 1 1 1 2 2 2 2 2 1 1 2 2 2 2 1
7 5 5 5 5 5 4 4 4 4 4 3 2 3 5 6 7 6 5 4 4 3 2 2 2 1 1 1 1 1 1 1 2 2 2 2 1 1 1 1 1 2 2
5 8 7 5 5 5 5 4 4 4 4 3 3 3 2 3 3 3 2 2 3 2 2 2 1 1 1 1 1 1 2 2 2 2 1 1 1 1 1 1 1 1 1
5 7 9 6 5 5 5 5 4 4 4 3 2 2 4 3 3 3 2 2 2 2 2 2 1 1 1 1 2 2 2 1 1 1 1 1 0 0 1 1 1 1 1
6 6 6 6 5 5 5 4 4 4 4 4 3 3 4 3 3 2 2 2 2 2 2 2 2 1 1 2 2 2 1 1 0 0 0 0 0 0 0 0 1 1 1
6 6 5 5 5 6 5 5 5 5 5 4 4 4 4 3 3 3 2 2 1 1 1 2 2 1 1 1 1 1 1 1 1 1 1 0 0 0 1 1 1 1 1
6 6 6 5 5 5 5 5 5 5 5 5 4 4 4 4 3 3 3 2 2 1 1 1 2 2 2 1 1 1 1 1 1 1 2 1 1 1 1 1 2 2 2
6 6 6 5 5 5 5 5 5 5 5 5 4 4 4 4 3 3 3 2 2 2 2 2 1 1 2 2 2 1 1 1 1 1 1 1 1 1 1 2 2 2 2
5 5 5 4 4 4 5 5 5 5 5 5 4 4 4 4 4 3 3 3 3 2 2 2 2 2 2 2 2 2 1 1 0 1 1 1 1 1 2 2 2 2 3
Wind_Direction
191 192 192 189 191 181 181 193 193 185 179 181 178 176 178 180 170 165 178 176 176 213 258 220 256 246 221 220 184 176 178 165 187 293 31 21 39 46 37 42 49 47 46
179 170 175 169 164 163 173 177 164 161 152 159 151 146 143 136 135 150 167 165 150 150 181 88 323 360 62 54 100 116 136 147 157 162 48 40 46 48 46 51 53 56 55
153 155 156 157 158 160 159 145 130 128 118 118 125 132 139 136 132 137 142 131 124 116 107 115 74 91 77 65 81 92 104 113 123 134 106 58 61 53 55 58 55 46 54
134 141 151 161 159 150 137 125 115 115 114 116 116 114 119 121 128 132 123 114 101 85 75 84 95 110 118 108 94 93 100 100 105 116 104 76 64 50 61 67 54 41 41
128 131 142 141 131 125 121 120 110 102 97 90 85 74 65 84 111 120 116 110 103 87 69 66 76 83 84 92 98 100 104 101 103 102 93 78 70 72 61 53 68 54 45
131 136 132 123 113 111 114 111 104 95 85 83 83 80 71 70 86 103 112 104 99 95 84 72 71 71 79 80 81 83 92 103 107 100 89 86 68 72 80 94 91 72 50
131 127 111 107 104 100 100 97 97 97 94 89 83 80 78 75 88 97 101 100 90 81 79 77 72 68 73 80 76 69 64 69 85 111 108 93 104 119 121 97 64 55 66
125 119 113 112 106 99 96 94 92 93 93 92 85 81 76 70 79 90 95 92 83 74 72 77 82 74 73 85 83 73 63 56 60 69 83 75 70 78 111 126 122 77 70
118 115 109 110 107 100 99 98 96 92 86 84 82 80 79 69 71 87 92 88 82 70 63 65 78 80 74 84 87 82 69 55 59 67 69 68 67 65 71 91 84 90 71
124 119 112 110 111 109 106 100 92 91 87 83 78 74 76 69 65 81 92 95 91 82 70 64 68 78 76 78 86 89 82 62 58 57 54 50 55 58 56 62 90 100 86
120 113 107 104 106 106 102 96 96 96 91 85 78 67 64 63 64 71 85 97 103 97 86 74 69 77 76 73 74 80 88 86 72 68 60 52 48 47 43 42 46 79 84
114 109 105 102 104 104 102 97 94 99 96 90 83 68 53 50 61 72 81 89 98 100 94 87 81 80 77 73 72 75 76 75 73 68 62 52 46 38 32 40 49 54 54
111 108 105 99 92 97 103 105 100 96 100 99 96 86 67 57 62 72 80 85 88 91 91 92 87 82 78 72 67 69 69 71 74 72 64 47 27 22 32 41 43 48 52
117 113 109 104 98 87 84 91 103 107 111 111 109 106 93 73 70 76 84 88 87 88 88 84 80 74 71 67 60 55 56 64 76 74 63 43 34 40 42 38 36 29 45
121 116 111 106 107 96 79 61 76 73 117 136 135 135 131 120 108 115 119 110 110 111 105 86 76 70 64 60 58 54 53 58 60 57 63 58 49 45 37 32 37 38 45
128 125 121 119 113 110 104 79 54 63 71 84 106 117 99 112 120 114 112 112 112 117 102 95 89 84 81 76 72 62 52 51 50 58 63 60 54 49 41 38 46 48 42
138 137 132 131 130 128 124 118 102 63 59 65 80 96 104 112 113 116 113 105 102 106 97 102 104 101 93 86 77 69 50 28 33 55 58 52 53 53 50 40 39 37 27
136 139 139 139 139 137 133 128 126 124 107 64 47 74 97 110 116 120 118 103 85 76 100 117 120 121 114 103 91 77 64 51 46 46 46 46 50 55 48 39 37 29 20
141 142 139 136 135 133 129 125 124 123 121 115 96 72 82 101 99 100 107 106 121 116 114 119 126 130 127 116 102 86 80 64 51 47 45 44 45 53 47 40 42 38 28
145 145 140 138 137 136 136 136 136 136 137 139 138 132 125 112 110 102 97 111 123 132 138 138 136 141 140 128 118 103 87 71 57 51 45 40 37 47 55 49 37 24 1
143 146 144 142 146 148 149 150 149 149 151 150 148 148 150 141 140 141 144 150 158 166 167 160 158 165 159 149 140 131 118 98 68 39 26 26 24 7 5 17 13 6 0
143 146 151 153 152 152 153 152 152 153 155 153 142 135 142 138 144 150 161 177 189 191 185 171 167 175 177 172 164 159 159 164 179 292 299 328 344 18 31 10 1 354 355
144 145 146 146 147 147 148 153 158 161 162 163 160 155 157 163 167 173 181 186 182 182 177 169 167 175 178 173 175 184 197 218 232 223 206 215 262 297 302 304 308 315 317
147 149 149 148 148 153 158 163 166 168 169 169 170 171 172 174 178 180 178 170 168 175 176 174 187 195 188 177 179 196 222 237 233 224 212 213 233 269 282 284 281 287 292
146 149 153 156 157 160 163 165 169 172 173 174 176 177 178 177 178 179 177 171 168 171 172 170 185 198 192 184 184 192 192 196 215 225 214 218 241 262 272 278 281 282 285
145 150 154 156 160 166 169 172 175 176 178 180 181 183 184 185 185 185 183 181 182 185 186 188 201 204 203 204 205 189 172 186 236 251 220 222 250 273 284 278 285 281 283